Tracking 19563 objects as of 20-Mar-2019
HD Live streaming from Space Station
objects crossing your sky now

OPS 7869 (DMSP 4B F1)

Track OPS 7869 (DMSP 4B F1) now!
10-day predictions
OPS 7869 (DMSP 4B F1) is classified as:


NORAD ID: 3266
Int'l Code: 1968-042A
Perigee: 810.8 km
Apogee: 886.3 km
Inclination: 98.9 °
Period: 101.7 minutes
Semi major axis: 7219 km
RCS: 0.6432 m2 (medium)
Launch date: May 23, 1968
Source: United States (US)
Launch site: AIR FORCE WESTERN TEST RANGE (AFWTR)
aabbcc
Your satellite tracking list
Your tracking list is empty




NASA's NSSDC Master Catalog

Two Line Element Set (TLE):
1  3266U 68042A   19078.56459150 -.00000002 +00000-0 +21920-4 0  9998
2  3266 098.8533 301.7497 0052303 317.9497 041.7667 14.15254812538728
Source of the keplerian elements: AFSPC